Regional Weather Roundup
Issued by NWS Goodland, KS

Home | Current Version | Previous Version | Graphics & Text | Print | Product List | Glossary On
Versions: 1 2 3 4 5 6 7 8 9 10 11 12 13 14 15 16 17 18 19 20 21 22 23 24 25 26 27 28 29 30 31 32 33 34 35 36 37 38 39 40 41 42 43 44 45 46 47 48 49 50
000
ASUS43 KGLD 282108
RWRGLD

GOODLAND FORECAST AREA HOURLY WEATHER ROUNDUP
NATIONAL WEATHER SERVICE GOODLAND KS
300 PM MDT SAT MAY 28 2016

...OFFICIAL OBSERVATIONS...

CITY           SKY/WX    TMP DP  RH WIND       PRES   REMARKS
GOODLAND KS    MOSUNNY   75  46  35 SW8       29.99S
HILL CITY KS   MOSUNNY   78  50  37 W9        29.94F
IMPERIAL NEB   SUNNY     74  47  38 W12       29.95F
MCCOOK NEB     MOSUNNY   75  51  43 NW10      29.93F
AKRON CO       SUNNY     70  42  36 VRB5      30.01S
BURLINGTON CO  MOSUNNY   73  39  29 SW6       30.02S
LIMON CO       SUNNY     67  39  35 E3        30.05F
$$

...UNOFFICIAL OBSERVATIONS...

CITY           SKY/WX    TMP DP  RH WIND       PRES   REMARKS
GOVE KS          N/A     77  32  19 MISG        N/A
LENORA KS        N/A     74  32  21 MISG        N/A
SHARON SPRINGS   N/A     76  53  44 SW7         N/A
KIT CARSON CO    N/A     72  45  37 CALM        N/A
YUMA CO          N/A     73  45  37 CALM        N/A
$$




USA.gov is the U.S. government's official web portal to all federal, state and local government web resources and services.